• In Deutschland
  • Länderverzeichnis
  • Für 7 Tage
  • Wassertemperatur
  • Satellitenkarten
  • Wetterkarte
  • Widgets
  • user-avatar
    Anmelden

    Stündliche Wetter Naumivka

    Heute, 23 Juli, Montag

    Zeit Temperatur Niederschläge Wind Luftdruck Luftfeuchtigkeit
    00:00 +24°C° 0,1 mm 2 m/S 751 mmHg 75%
    01:00 +24°C° 0,1 mm 2 m/S 750 mmHg 76%
    02:00 +24°C° 0 mm 2 m/S 750 mmHg 76%
    03:00 +24°C° 0,3 mm 2 m/S 750 mmHg 76%
    04:00 +24°C° 0,3 mm 2 m/S 750 mmHg 76%
    05:00 +23°C° 0,3 mm 2 m/S 750 mmHg 76%
    06:00 +25°C° 0,1 mm 2 m/S 750 mmHg 68%
    07:00 +27°C° 0,1 mm 1 m/S 750 mmHg 59%
    08:00 +29°C° 0,1 mm 1 m/S 750 mmHg 51%
    09:00 +30°C° 0 mm 2 m/S 750 mmHg 47%
    10:00 +31°C° 0 mm 2 m/S 750 mmHg 42%
    11:00 +32°C° 0 mm 2 m/S 750 mmHg 38%
    12:00 +33°C° 0 mm 3 m/S 750 mmHg 38%
    13:00 +33°C° 0 mm 3 m/S 749 mmHg 38%
    14:00 +33°C° 0 mm 4 m/S 749 mmHg 39%
    15:00 +33°C° 0,1 mm 4 m/S 749 mmHg 41%
    16:00 +31°C° 0,1 mm 3 m/S 749 mmHg 43%
    17:00 +31°C° 0,1 mm 3 m/S 749 mmHg 45%
    18:00 +29°C° 0,2 mm 3 m/S 749 mmHg 50%
    19:00 +28°C° 0,2 mm 2 m/S 749 mmHg 56%
    20:00 +26°C° 0,2 mm 2 m/S 749 mmHg 61%
    21:00 +26°C° 0,5 mm 1 m/S 749 mmHg 65%
    22:00 +25°C° 0,5 mm 1 m/S 749 mmHg 68%
    23:00 +24°C° 0,5 mm 1 m/S 749 mmHg 72%

    Morgen, 24 Juli, Dienstag

    Zeit Temperatur Niederschläge Wind Luftdruck Luftfeuchtigkeit
    00:00 +24°C° 0,1 mm 1 m/S 749 mmHg 72%
    01:00 +24°C° 0,1 mm 1 m/S 749 mmHg 73%
    02:00 +23°C° 0,1 mm 1 m/S 748 mmHg 74%
    03:00 +23°C° 0 mm 1 m/S 748 mmHg 74%
    04:00 +23°C° 0 mm 1 m/S 748 mmHg 75%
    05:00 +23°C° 0 mm 1 m/S 748 mmHg 75%
    06:00 +25°C° 0 mm 2 m/S 749 mmHg 68%
    07:00 +27°C° 0 mm 2 m/S 749 mmHg 61%
    08:00 +28°C° 0 mm 2 m/S 749 mmHg 54%
    09:00 +30°C° 0 mm 2 m/S 749 mmHg 49%
    10:00 +31°C° 0 mm 3 m/S 749 mmHg 44%
    11:00 +33°C° 0 mm 3 m/S 749 mmHg 40%
    12:00 +34°C° 0 mm 3 m/S 749 mmHg 38%
    13:00 +34°C° 0 mm 3 m/S 749 mmHg 37%
    14:00 +35°C° 0 mm 4 m/S 748 mmHg 36%
    15:00 +34°C° 0 mm 4 m/S 748 mmHg 37%
    16:00 +34°C° 0 mm 4 m/S 748 mmHg 39%
    17:00 +34°C° 0 mm 4 m/S 748 mmHg 41%
    18:00 +32°C° 0 mm 4 m/S 748 mmHg 48%
    19:00 +29°C° 0 mm 4 m/S 749 mmHg 54%
    20:00 +28°C° 0 mm 5 m/S 749 mmHg 61%
    21:00 +27°C° 0 mm 4 m/S 749 mmHg 63%
    22:00 +27°C° 0 mm 4 m/S 749 mmHg 66%
    23:00 +26°C° 0 mm 3 m/S 749 mmHg 68%

    übermorgen, 25 Juli, Mittwoch

    Zeit Temperatur Niederschläge Wind Luftdruck Luftfeuchtigkeit
    00:00 +25°C° 0 mm 3 m/S 749 mmHg 70%
    01:00 +25°C° 0 mm 2 m/S 748 mmHg 73%
    02:00 +25°C° 0 mm 2 m/S 748 mmHg 75%
    03:00 +25°C° 0 mm 2 m/S 748 mmHg 75%
    04:00 +24°C° 0 mm 2 m/S 748 mmHg 75%
    05:00 +24°C° 0 mm 2 m/S 748 mmHg 75%
    06:00 +26°C° 0 mm 3 m/S 748 mmHg 70%
    07:00 +27°C° 0 mm 3 m/S 748 mmHg 65%
    08:00 +29°C° 0 mm 3 m/S 749 mmHg 59%
    09:00 +30°C° 0 mm 3 m/S 749 mmHg 55%
    10:00 +33°C° 0 mm 3 m/S 749 mmHg 50%
    11:00 +34°C° 0 mm 3 m/S 749 mmHg 46%
    12:00 +34°C° 0,2 mm 3 m/S 749 mmHg 45%
    13:00 +34°C° 0,2 mm 4 m/S 749 mmHg 44%
    14:00 +34°C° 0,2 mm 4 m/S 749 mmHg 44%
    15:00 +33°C° 1,5 mm 4 m/S 749 mmHg 49%
    16:00 +31°C° 1,5 mm 3 m/S 749 mmHg 54%
    17:00 +30°C° 1,5 mm 3 m/S 749 mmHg 59%
    18:00 +29°C° 0,1 mm 3 m/S 749 mmHg 62%
    19:00 +28°C° 0,1 mm 2 m/S 749 mmHg 65%
    20:00 +27°C° 0,1 mm 2 m/S 750 mmHg 68%
    21:00 +27°C° 0,1 mm 2 m/S 750 mmHg 69%
    22:00 +26°C° 0,1 mm 2 m/S 750 mmHg 71%
    23:00 +26°C° 0,1 mm 2 m/S 750 mmHg 72%

    26 Juli, Donnerstag

    Zeit Temperatur Niederschläge Wind Luftdruck Luftfeuchtigkeit
    00:00 +25°C° 0 mm 2 m/S 750 mmHg 73%
    01:00 +25°C° 0 mm 2 m/S 750 mmHg 74%
    02:00 +24°C° 0 mm 2 m/S 750 mmHg 75%
    03:00 +24°C° 0 mm 2 m/S 750 mmHg 76%
    04:00 +24°C° 0 mm 2 m/S 750 mmHg 77%
    05:00 +24°C° 0 mm 2 m/S 750 mmHg 78%
    06:00 +26°C° 0 mm 1 m/S 750 mmHg 70%
    07:00 +28°C° 0 mm 1 m/S 750 mmHg 63%
    08:00 +30°C° 0 mm 1 m/S 750 mmHg 56%
    09:00 +31°C° 0 mm 2 m/S 750 mmHg 51%
    10:00 +34°C° 0 mm 2 m/S 751 mmHg 47%
    11:00 +35°C° 0 mm 3 m/S 751 mmHg 42%
    12:00 +36°C° 0,1 mm 3 m/S 750 mmHg 40%
    13:00 +36°C° 0,1 mm 3 m/S 750 mmHg 38%
    14:00 +37°C° 0,1 mm 3 m/S 750 mmHg 36%
    15:00 +37°C° 0 mm 3 m/S 750 mmHg 37%
    16:00 +36°C° 0 mm 4 m/S 750 mmHg 38%
    17:00 +36°C° 0 mm 4 m/S 750 mmHg 39%
    18:00 +34°C° 0,1 mm 4 m/S 750 mmHg 46%
    19:00 +31°C° 0,1 mm 3 m/S 751 mmHg 53%
    20:00 +29°C° 0,1 mm 3 m/S 751 mmHg 60%
    21:00 +28°C° 0 mm 3 m/S 751 mmHg 62%
    22:00 +28°C° 0 mm 2 m/S 751 mmHg 64%
    23:00 +27°C° 0 mm 2 m/S 751 mmHg 66%

    27 Juli, Freitag

    Zeit Temperatur Niederschläge Wind Luftdruck Luftfeuchtigkeit
    00:00 +27°C° 0 mm 1 m/S 751 mmHg 67%
    01:00 +27°C° 0 mm 1 m/S 751 mmHg 68%
    02:00 +26°C° 0 mm 1 m/S 751 mmHg 70%
    03:00 +26°C° 0 mm 1 m/S 751 mmHg 71%
    04:00 +26°C° 0 mm 1 m/S 751 mmHg 72%
    05:00 +26°C° 0 mm 1 m/S 751 mmHg 73%
    06:00 +28°C° 0 mm 1 m/S 751 mmHg 65%
    07:00 +30°C° 0 mm 1 m/S 751 mmHg 57%
    08:00 +30°C° 0 mm 0 m/S 751 mmHg 49%
    09:00 +33°C° 0 mm 1 m/S 751 mmHg 45%
    10:00 +34°C° 0 mm 1 m/S 751 mmHg 41%
    11:00 +37°C° 0 mm 2 m/S 751 mmHg 36%
    12:00 +37°C° 0 mm 2 m/S 751 mmHg 35%
    13:00 +37°C° 0 mm 3 m/S 751 mmHg 34%
    14:00 +38°C° 0 mm 3 m/S 750 mmHg 33%
    15:00 +37°C° 0 mm 3 m/S 750 mmHg 36%
    16:00 +36°C° 0 mm 3 m/S 750 mmHg 39%
    17:00 +36°C° 0 mm 3 m/S 750 mmHg 43%
    18:00 +34°C° 0,1 mm 3 m/S 750 mmHg 48%
    19:00 +33°C° 0,1 mm 3 m/S 750 mmHg 54%
    20:00 +30°C° 0,1 mm 2 m/S 751 mmHg 59%
    21:00 +29°C° 0,1 mm 2 m/S 750 mmHg 62%
    22:00 +29°C° 0,1 mm 2 m/S 750 mmHg 65%
    23:00 +28°C° 0,1 mm 2 m/S 750 mmHg 67%

    28 Juli, Samstag

    Zeit Temperatur Niederschläge Wind Luftdruck Luftfeuchtigkeit
    00:00 +28°C° 0,1 mm 2 m/S 750 mmHg 69%
    01:00 +27°C° 0,1 mm 2 m/S 750 mmHg 70%
    02:00 +27°C° 0,1 mm 2 m/S 750 mmHg 72%
    03:00 +27°C° 0,1 mm 2 m/S 750 mmHg 73%
    04:00 +26°C° 0,1 mm 2 m/S 750 mmHg 74%
    05:00 +26°C° 0,1 mm 2 m/S 750 mmHg 76%
    06:00 +28°C° 0 mm 1 m/S 750 mmHg 69%
    07:00 +29°C° 0 mm 1 m/S 750 mmHg 62%
    08:00 +31°C° 0 mm 1 m/S 750 mmHg 56%
    09:00 +32°C° 0,1 mm 1 m/S 750 mmHg 51%
    10:00 +35°C° 0,1 mm 2 m/S 750 mmHg 46%
    11:00 +36°C° 0,1 mm 2 m/S 750 mmHg 41%
    12:00 +36°C° 0 mm 2 m/S 750 mmHg 40%
    13:00 +37°C° 0 mm 3 m/S 750 mmHg 38%
    14:00 +37°C° 0 mm 3 m/S 750 mmHg 36%
    15:00 +37°C° 0,1 mm 3 m/S 750 mmHg 39%
    16:00 +36°C° 0,1 mm 4 m/S 750 mmHg 42%
    17:00 +35°C° 0,1 mm 4 m/S 750 mmHg 44%
    18:00 +34°C° 0,2 mm 3 m/S 750 mmHg 51%
    19:00 +31°C° 0,2 mm 3 m/S 750 mmHg 57%
    20:00 +29°C° 0,2 mm 3 m/S 750 mmHg 63%
    21:00 +29°C° 0,1 mm 2 m/S 750 mmHg 65%
    22:00 +28°C° 0,1 mm 2 m/S 750 mmHg 66%
    23:00 +28°C° 0,1 mm 2 m/S 750 mmHg 68%
    Mehr zeigen